Location: Thompson
(55.7500°N, 97.8670°W)
Time: 19:38:09
(UTC-06:00)

Daily predictions for brighter satellites

Satellite Brightness Start Highest point End
(mag) Time Altitude Azimuth Time Altitude Azimuth Time Altitude Azimuth
Cosmos 2227 Rocket 3.9 16:48:32 10° WNW 16:52:55 22° NNW 16:57:19 10° NNE
CENTAUR R/B 3.4 16:48:54 10° S 16:54:24 34° ESE 17:00:36 10° ENE
Cosmos 2263 Rocket 2.4 16:49:30 10° SW 16:55:10 79° NW 17:00:49 10° NNE
Cosmos 2100 Rocket 4.1 16:50:11 10° S 16:56:22 69° E 17:02:41 10° NNE
Cosmos 2278 Rocket 3.8 16:53:19 10° SE 16:56:44 16° E 17:00:09 10° ENE
Cosmos 1346 Rocket 2.7 16:53:21 10° S 16:57:16 81° ESE 17:01:14 10° NNE
Cosmos 1140 Rocket 3.5 16:52:23 10° SSW 16:57:36 81° ESE 17:02:49 10° NNE
ALOS 3.7 16:56:48 10° E 16:59:56 18° NE 17:03:03 10° N
Cosmos 2242 Rocket 4.4 16:57:49 10° SSE 17:01:50 31° E 17:05:50 10° NNE
CORIOLIS 4.5 16:58:47 10° SE 17:03:56 46° ENE 17:09:08 10° N
COSMOS 2455 3.9 17:00:02 10° SSE 17:04:56 27° ESE 17:09:51 10° NE
Cosmos 468 Rocket 4.2 17:01:25 10° NNW 17:06:39 80° WSW 17:11:48 10° SSE
AQUARIUS 4.5 17:02:35 10° SE 17:06:51 45° ENE 17:11:10 10° N
SMAP 3.3 17:03:20 10° SE 17:07:48 48° ENE 17:12:17 10° N
SL-16 R/B 3.6 17:02:13 10° N 17:08:09 46° WNW 17:14:02 10° SW
Cosmos 1802 Rocket 4.0 17:06:22 10° S 17:12:29 71° E 17:18:36 10° NNE
CZ-4 R/B 1.8 17:09:15 10° SE 17:12:48 36° ENE 17:16:21 10° N
Cosmos 1933 3.8 17:09:22 10° SSE 17:13:10 41° E 17:16:59 10° NNE
CZ-4C R/B 2.9 17:07:41 10° NW 17:14:05 57° NNE 17:21:29 10° ESE
Cosmos 1954 Rocket 4.3 17:11:46 10° SW 17:17:01 72° WNW 17:22:15 10° NNE
Cosmos 1816 Rocket 4.4 17:11:22 10° N 17:17:30 68° ENE 17:23:37 10° SSE
COSMOS 2441 4.5 17:13:38 10° SSE 17:18:33 87° WSW 17:23:29 10° NNW
Cosmos 1484 Rocket 2.9 17:17:00 10° SSE 17:20:49 55° ENE 17:24:43 10° N
Cosmos 2297 Rocket 4.0 17:20:28 10° WNW 17:24:34 20° NNW 17:28:40 10° NNE
IRAS Rocket 4.4 17:19:12 10° SSE 17:24:46 83° WSW 17:30:19 10° NNW
Cosmos 1763 Rocket 3.5 17:19:43 10° NNW 17:25:00 89° WSW 17:30:11 10° SSE
Cosmos 1862 4.3 17:21:44 10° NNW 17:25:39 52° W 17:29:35 10° S
ATLAS CENTAUR R/B 2.7 17:24:09 10° WNW 17:27:08 22° N 17:29:49 12° NE
Cosmos 1782 Rocket 4.3 17:23:25 10° N 17:27:18 30° ENE 17:31:11 10° SE
Cosmos 2082 Rocket 2.3 17:22:40 10° NNW 17:28:20 59° NE 17:33:56 10° SE
Meteor 2-10 Rocket 3.6 17:25:17 10° S 17:30:35 77° E 17:36:10 10° NNE
SJ-7 4.3 17:27:18 10° SSE 17:31:27 78° ENE 17:35:33 10° NNW
Meteor 1-20 Rocket 4.3 17:26:51 10° N 17:32:24 56° ENE 17:37:48 10° SSE
Meteor 1-25 Rocket 4.3 17:26:58 10° N 17:32:47 61° ENE 17:38:33 10° SSE
Cosmos 1725 Rocket 4.0 17:26:42 10° S 17:32:54 64° E 17:39:05 10° NNE
COSMO-SKYMED 1 4.1 17:32:11 14° ENE 17:33:46 17° E 17:36:37 10° SE
CZ-2C R/B 3.4 17:29:28 10° S 17:34:25 54° W 17:39:31 10° NNW
CSL-04 Rocket 3.7 17:29:31 10° SSE 17:34:51 87° WSW 17:40:17 10° NNW
Cosmos 1340 2.6 17:34:25 10° S 17:38:09 66° E 17:41:56 10° NNE
Cosmos 1814 Rocket 4.5 17:34:27 10° NNW 17:39:47 68° WSW 17:45:07 10° SSE
ATLAS 3B R/B 3.1 17:33:08 10° WSW 17:40:13 59° NNW 17:46:08 14° NE
METEOR-M 4.3 17:35:32 10° SE 17:40:41 51° ENE 17:45:52 10° N
YAOGAN 1 2.6 17:37:46 10° SE 17:41:59 54° ENE 17:46:14 10° N
SL-27 R/B 2.2 17:38:58 10° NNW 17:42:19 75° ENE 17:45:40 10° SSE
Cosmos 1782 4.1 17:40:08 10° SE 17:43:10 21° E 17:44:18 18° ENE
Tsikada Rocket 4.2 17:37:44 10° NNW 17:43:56 78° W 17:50:05 10° S
H-2A R/B 4.4 17:44:50 16° NE 17:44:50 16° NE 17:46:38 10° NNE
USA 238 DEB 4.1 17:38:34 10° WSW 17:45:28 60° NNW 17:51:23 15° NE
USA 238 4.1 17:38:40 10° WSW 17:45:34 60° NNW 17:51:29 15° NE
COSMOS 2487 3.7 17:43:05 10° N 17:45:57 23° NE 17:46:42 21° ENE
Meteor 2-12 Rocket 4.4 17:41:39 10° S 17:47:40 69° E 17:53:43 10° NNE
Cosmos 2346 Rocket 4.4 17:41:33 10° N 17:47:42 87° ENE 17:53:53 10° S
Cosmos 44 Rocket 3.2 17:44:05 10° NW 17:48:55 75° NE 17:53:50 10° SE
ERS-2 2.2 17:46:28 10° SE 17:50:03 51° ENE 17:53:39 10° N
Cosmos 2061 Rocket 4.4 17:43:45 10° SSW 17:50:04 69° WNW 17:56:29 10° N
Cosmos 1707 Rocket 4.4 17:47:03 10° SSW 17:51:26 53° WNW 17:55:48 10° N
Cosmos 540 Rocket 3.4 17:46:16 10° NNW 17:51:28 69° ENE 17:56:37 10° SE
Timation 2 Rocket 4.3 17:46:02 10° NW 17:52:47 52° NE 17:59:18 10° ESE
Cosmos 2016 Rocket 4.2 17:47:04 10° SSW 17:53:23 77° WNW 17:59:40 10° N
DNEPR-1 R/B 3.4 17:51:04 10° SW 17:55:20 89° NW 17:58:16 20° NE
CZ-2C R/B 4.1 17:51:32 10° NNE 17:55:45 39° E 17:59:59 10° SSE
Lacrosse 5 1.8 17:51:18 10° WSW 17:56:23 87° SSE 17:59:43 22° ENE
USA 161 2.4 17:55:59 14° NNW 17:57:19 29° WNW 17:59:05 10° SW
Cosmos 292 Rocket 3.8 17:54:25 10° NNW 17:59:06 54° NE 18:03:46 10° SE
Cosmos 841 Rocket 4.0 17:55:18 10° NNW 18:00:33 66° WSW 18:05:46 10° SSE
Ariane Rocket 3.5 17:56:27 10° S 18:01:29 62° WSW 18:06:33 10° NNW
Cosmos 836 Rocket 4.4 17:56:45 10° NNW 18:02:02 78° ENE 18:07:18 10° SSE
Cosmos 1844 Rocket 2.7 17:56:55 10° SSW 18:02:35 88° ESE 18:07:33 14° NE
Cosmos 1703 Rocket 4.1 17:59:10 10° SSE 18:03:18 38° E 18:06:36 15° NNE
Cosmos 1850 Rocket 4.4 17:59:09 10° SW 18:04:18 62° WNW 18:09:29 10° NNE
Cosmos 1346 4.4 18:03:56 10° SW 18:05:58 28° WNW 18:07:45 12° N
Cosmos 1633 2.4 18:04:57 10° N 18:08:38 71° ENE 18:12:17 10° SSE
Okean 2 Rocket 3.3 18:05:05 10° N 18:09:30 48° ENE 18:13:54 10° SSE
MONITOR-E 4.1 18:09:17 10° SSE 18:12:18 59° ENE 18:15:20 10° N
Cosmos 1437 2.8 18:12:46 10° SSW 18:15:56 73° WNW 18:18:13 18° N
Cosmos 44 3.4 18:12:39 10° NW 18:17:13 72° SW 18:22:01 10° SE
Cosmos 1486 Rocket 4.2 18:13:12 10° S 18:18:14 50° ESE 18:21:15 23° NE
FENGYUN 3A 3.6 18:15:28 10° SSE 18:20:49 65° ENE 18:26:12 10° NNW
Cosmos 1908 Rocket 4.0 18:16:31 10° NNW 18:20:50 64° W 18:25:07 10° S
NOSS 3-2 (C) 3.9 18:15:27 10° WSW 18:21:45 66° NNW 18:26:30 22° NE
SKYMED 2 3.9 18:20:46 30° NE 18:22:16 41° E 18:26:23 10° SSE
Cosmos 1833 Rocket 3.0 18:18:39 10° NW 18:24:16 70° WSW 18:29:51 10° SSE
Cosmos 1464 Rocket 4.1 18:21:40 10° SSE 18:27:31 49° E 18:33:27 10° NNE
NOSS 3-2 (A) 4.0 18:24:17 10° W 18:30:34 57° NNW 18:34:56 24° NE
Intercosmos 25 4.1 18:24:31 10° S 18:31:19 61° E 18:34:28 19° NNE
Cosmos 783 Rocket 4.4 18:27:18 10° NNW 18:32:40 76° ENE 18:37:59 10° SSE
Cosmos 1844 3.9 18:29:32 10° SW 18:35:20 76° NW 18:39:33 20° NNE
Cosmos 2297 4.3 18:30:21 10° S 18:35:30 36° ESE 18:36:14 34° E
Cosmos 1354 Rocket 4.4 18:30:45 10° S 18:35:37 40° ESE 18:36:22 37° E
Meteor 1-11 Rocket 3.7 18:30:03 10° N 18:35:57 66° ENE 18:41:43 10° SSE
ALOS 2.1 18:32:03 10° SSE 18:36:44 83° ENE 18:41:27 10° NNW
Sich 1 Rocket 4.4 18:33:38 10° NNW 18:37:57 53° W 18:42:16 10° S
SPOT 3 Rocket 3.6 18:33:08 10° SSE 18:38:22 85° WSW 18:43:38 10° NNW
Cosmos 2227 Rocket 3.9 18:35:22 10° NW 18:39:08 18° N 18:40:45 16° NNE
Meteor 1-28 Rocket 3.3 18:37:16 20° N 18:39:46 74° WNW 18:43:28 10° SSW
Cosmos 2278 Rocket 2.1 18:34:14 10° SSW 18:39:53 72° ESE 18:42:53 29° NE
Cosmos 2263 Rocket 3.8 18:35:12 10° W 18:39:58 27° NNW 18:43:54 13° NNE
Cosmos 2233 Rocket 4.2 18:35:10 10° SSW 18:41:25 74° WNW 18:47:39 10° N
Meteor 1-26 Rocket 4.5 18:37:21 10° SSW 18:42:52 68° WNW 18:48:24 10° N
CENTAUR R/B 2.7 18:38:01 10° SW 18:44:26 84° NW 18:48:35 28° NE
Resurs 01 Rocket 3.6 18:50:10 16° NNE 18:50:10 16° NNE 18:51:22 10° N
CZ-4 R/B 3.4 18:44:32 10° SSW 18:47:56 29° W 18:51:20 10° NNW
Meteor 2-20 Rocket 4.3 18:42:06 10° N 18:48:13 65° ENE 18:54:15 10° SSE
Cosmos 1538 Rocket 4.1 18:43:16 10° NNW 18:48:29 54° NE 18:49:37 45° E
COSMOS 2455 2.8 18:44:14 10° SW 18:50:16 86° NW 18:53:20 31° NE
Landsat 4 3.7 18:50:12 43° N 18:51:22 81° WNW 18:55:10 10° SSW
Cosmos 1606 2.5 18:49:35 10° SSW 18:53:23 87° W 18:53:50 68° N
Cosmos 1536 4.4 18:49:47 10° N 18:51:32 24° N 18:51:32 24° N
Timation 1 Rocket 4.3 18:47:57 10° SW 18:53:59 86° NW 18:57:17 29° NE
EO 1 Del DPAF 3.3 18:54:39 61° SSE 18:54:39 61° SSE 18:57:57 10° S
Okean 1-7 2.9 18:51:29 10° S 18:55:53 80° E 18:57:12 45° NNE
NOAA 12 4.4 18:54:01 10° S 18:59:19 69° WSW 19:04:39 10° NNW
CZ-4C R/B 3.1 18:56:16 10° NW 19:03:02 69° SW 19:09:18 16° SSE
Cosmos 405 3.5 19:02:02 10° NNW 19:05:36 59° W 19:06:08 51° SW
ATLAS CENTAUR R/B 3.0 19:04:02 10° NW 19:06:04 21° NNW 19:06:04 21° NNW
Cosmos 1513 Rocket 4.3 19:03:46 10° S 19:10:03 80° E 19:16:16 10° NNE
COSMO-SKYMED 1 2.6 19:09:24 50° N 19:10:30 79° WNW 19:14:50 10° SSW
Cosmos 2297 Rocket 3.9 19:06:55 10° NNW 19:10:48 18° N 19:11:14 18° NNE
Cosmos 1602 4.4 19:07:24 10° NNW 19:11:10 53° W 19:14:55 10° S
Cosmos 2082 Rocket 3.7 19:07:04 10° NW 19:12:15 36° WSW 19:17:22 10° S
Envisat 4.0 19:19:45 32° N 19:19:45 32° N 19:22:42 10° N
H-2A R/B 4.4 19:20:03 26° NNW 19:20:03 26° NNW 19:21:50 10° NNW
Meteor 2-6 Rocket 4.1 19:12:34 10° SSW 19:18:04 88° WNW 19:22:16 19° NNE
Cosmos 1782 3.5 19:15:16 10° SSW 19:19:12 52° WNW 19:19:59 44° NNW
COSMOS 2487 3.9 19:18:07 10° NW 19:20:33 36° WNW 19:20:33 36° WNW
Cosmos 1891 Rocket 4.4 19:17:06 10° S 19:23:15 87° WNW 19:29:21 10° NNE
ATLAS 3B R/B 3.3 19:25:24 10° WNW 19:32:04 43° N 19:33:23 39° NNE
Nadezhda 4 Rocket 4.2 19:25:57 10° NNW 19:32:05 70° W 19:38:09 10° S
Cosmos 773 Rocket 4.0 19:27:48 10° NNW 19:32:32 74° NNW 19:32:32 74° NNW
Cosmos 2151 Rocket 4.1 19:29:58 10° NNW 19:34:18 56° W 19:34:27 56° WSW
Cosmos 2221 Rocket 4.3 19:32:06 10° SSW 19:36:24 51° WNW 19:36:52 49° NW
USA 238 DEB 4.3 19:30:50 10° WNW 19:37:33 46° N 19:38:49 42° NNE
USA 238 4.3 19:30:56 10° WNW 19:37:40 46° N 19:38:55 42° NNE
Cosmos 1503 Rocket 4.0 19:33:38 10° SSW 19:38:42 77° W 19:38:42 77° W
Lacrosse 5 2.1 19:34:26 10° W 19:38:55 66° NW 19:38:55 66° NW
USA 234 3.7 19:42:56 44° SSE 19:42:56 44° SSE 19:48:18 10° SW
Cosmos 2034 Rocket 4.1 19:38:18 10° SSW 19:44:40 75° WNW 19:51:03 10° N
Meteor 1-5 Rocket 4.4 19:40:00 10° NNW 19:45:21 63° W 19:46:44 46° SSW
Cosmos 1844 Rocket 4.2 19:42:13 10° W 19:47:10 30° NNW 19:49:12 24° N
Meteor 1-27 Rocket 3.8 19:42:09 10° SSW 19:48:06 81° WNW 19:49:09 62° N
Cosmos 1092 Rocket 4.1 19:43:03 10° NNW 19:49:12 73° W 19:52:09 32° S
Cosmos 2285 Rocket 3.9 19:48:33 10° NNW 19:54:22 75° N 19:54:22 75° N
Cosmos 1627 Rocket 4.4 19:48:37 10° NNW 19:54:58 88° NNW 19:54:58 88° NNW
NOSS 3-2 (C) 4.3 20:07:22 10° WNW 20:13:44 46° N 20:13:57 46° N
Cosmos 2297 4.5 20:13:48 10° SW 20:18:12 49° W 20:18:12 49° W
NOSS 3-2 (A) 4.4 20:16:12 10° WNW 20:22:19 46° N 20:22:19 46° N
Resurs 01 Rocket 4.4 20:27:45 13° NNW 20:27:45 13° NNW 20:28:15 10° NNW
Cosmos 2278 Rocket 3.5 20:19:15 10° WSW 20:24:28 35° NW 20:24:45 35° NNW
Cosmos 2227 Rocket 4.1 20:20:13 10° NNW 20:22:33 21° N 20:22:33 21° N
Cosmos 2263 Rocket 4.3 20:22:12 10° NW 20:25:35 17° N 20:25:35 17° N
CENTAUR R/B 3.4 20:29:22 10° W 20:35:46 49° NNW 20:35:46 49° NNW
COSMOS 2455 4.1 20:31:24 10° W 20:36:29 36° NNW 20:36:29 36° NNW
Cosmos 2297 Rocket 4.4 20:51:25 10° NNW 20:53:02 18° NNW 20:53:02 18° NNW
ATLAS 3B R/B 4.1 21:17:02 10° NW 21:20:38 32° NW 21:20:38 32° NW
